Tracking 30990 objects as of 8-Jul-2025
HD Live streaming from Space Station
objects crossing your sky now

ALISIO-1

Track ALISIO-1 now!
10-day predictions


NORAD ID: 58562
Int'l Code: 2023-185M
Perigee: 527.8 km
Apogee: 539.1 km
Inclination: 97.6 °
Period: 95.2 minutes
Semi major axis: 6904 km
RCS: Unknown
Launch date: December 1, 2023
Source: United Kingdom (UK)
Launch site: AIR FORCE WESTERN TEST RANGE (AFWTR)
Your satellite tracking list
Your tracking list is empty




NASA's NSSDC Master Catalog

Two Line Element Set (TLE):
1 58562U 23185M   25189.46391397  .00002701  00000-0  15562-3 0  9994
2 58562  97.5772 259.8023 0008140  72.3748 287.8371 15.13245720 86503
Source of the keplerian elements: AFSPC